Orbital Elements at Epoch 2459200.5 (2020-Dec-17.0) TDB
Reference: JPL 15 (heliocentric ecliptic J2000)
Element | Value | Uncertainty (1-sigma) | Units |
e | .2270970018696134 | 5.0478e-08 | |
a | 2.346840759399245 | 9.1879e-09 | au |
q | 1.813880259074269 | 1.2243e-07 | au |
i | 3.840469975853997 | 4.042e-06 | deg |
node | 262.9891761432728 | 8.3212e-05 | deg |
peri | 127.5771265705134 | 8.4936e-05 | deg |
M | 95.28284798167283 | 1.4343e-05 | deg |
tp | 2458852.934957609300 (2020-Jan-04.43495761) | 5.1434e-05 | TDB |
period | 1313.178792522225 3.60 | 7.7117e-06 2.111e-08 | d yr |
n | .2741439338268228 | 1.6099e-09 | deg/d |
Q | 2.87980125972422 | 1.1274e-08 | au |
|
| | Orbit Determination Parameters
Additional Information
|